ATLAS 5 CENTAUR DEB, 47245

Orbit data source: Space-Track

ATLAS 5 CENTAUR DEB, 47245 is space debris in HEO originally from a launch on Wed, 17 Oct 2018 UTC launched from the Air Force Eastern Test Range (AFETR). Debris objects in space refer to the collection of defunct objects orbiting the Earth. Examples of debris include non-operational satellites, rocket bodies, and fragments generated from explosions, collisions, or faulty payload assembly.

Loading next visibility...
Identifier
47245, 2018-079EF
Orbit
HEO
Country
Flag of USUS
Related business
Flag of USUnited Launch Alliance/Lockheed Martin (US)
Manufacturer
ULA Decatur
Mission
Spacecraft
Bus & Motor
Unknown
Mass
Unknown
Launch date (UTC)
2018-10-17 (8 years ago)
Launch vehicle
Unknown
Launch site
Air Force Eastern Test Range (AFETR)
Object type
Payload
Rocket body
Debris
Shape & HBR
Unknown shape, 1.1 m
Radar Cross Section
RCS unknown

Expand to show TLE details & history
Last TLE update: 1 month ago

TLE from 1 month ago
0 ATLAS 5 CENTAUR DEB
1 47245U 18079EF  26085.15004129 -.00000197  00000-0  00000-0 0  9998
2 47245  13.1584  29.5578 4947981 346.4565   3.9264  1.87247182 36381
Epoch: 2026-03-26T03:36Z
TLE epoch observation values (Epoch: 2026-03-26T03:36:03.567Z)
Latitude
-0.00004°
Longitude
151.94614°
Altitude
7,775.964 km
Speed
6.48 km/s
True Right ascension
01h 58m 15s
True Declination
0° 00' 00"
Sunlit
Object was in daylight at epoch
Visualization orbit readout
Latitude
Unknown
Longitude
Unknown
Altitude
Unknown
Speed
Unknown
Apparent Right ascension
Unknown
Apparent Declination
Unknown
Sunlit
N/A
Visualization observer readout
Local Sidereal Time
12:54:01
Azimuth
Unknown
Elevation
Unknown
Doppler factor
Unknown
Orbital elements
Apogee altitude
35,188.276 km
Perigee altitude
7,670.202 km
Semi-major axis
27,807.376 km
Eccentricity
0.4948
Inclination
13.1584°
RAAN
29.5578°
Arg. of periapsis
346.4565°
True anomaly
13.28937°
Mean anomaly
3.9264°
Eccentric anomaly
7.74883°
Mean motion
0.46806 °/min
Orbital period
769.13 mins
BSTAR
0
Loading maneuver chart data...
Computing Atmospheric mass density...

Documentation

Showing up to 5 results
|